Location: Ciula Mare
(45.6000°N, 22.8167°E)
Time: 10:32:03
(UTC+00:00)

In-Cosmos 22 Rocket - Pass Details

Date: 03 February 2023
Orbit: 789 x 888 km, 81.2° (Epoch: 31 March)

Event Time Altitude Azimuth Distance (km) Brightness Sun altitude
Rises 16:47:09 0° 180° (S) 3,461 7.5 -12.5°
Reaches altitude 10° 16:49:35 10° 178° (S) 2,534 6.8 -12.9°
Maximum altitude 16:55:19 68° 97° (E) 956 4.2 -13.9°
Drops below altitude 10° 17:01:07 10° 16° (NNE) 2,562 6.5 -14.9°
Sets 17:03:35 0° 14° (NNE) 3,501 7.2 -15.3°
